Preview of NWS' New Version of Forecast
This preview is not operational and should not be used for support decisions.

Regional Weather Roundup (RWR)

Issued by Philadelphia/Mt Holly (PHI)

                            
000
ASUS41 KPHI 230012
RWRPHI

REGIONAL WEATHER ROUNDUP
NATIONAL WEATHER SERVICE MOUNT HOLLY NJ
800 PM EDT FRI MAR 22 2019

NOTE:  "FAIR" INDICATES FEW OR NO CLOUDS BELOW 12,000 FEET WITH NO
SIGNIFICANT WEATHER AND/OR OBSTRUCTIONS TO VISIBILITY.

 * = STATION DOES NOT REPORT PRECIPITATION (E.G. RAIN, SNOW, ETC.) 
        OR FOG.

NJZ015>026-230100-
SOUTHERN NEW JERSEY
  
CITY           SKY/WX    TMP DP  RH WIND       PRES   REMARKS
POMONA         LGT RAIN  41  35  79 NW18G52   29.58R                  
6HR MIN TEMP:  41; 6HR MAX TEMP:  51; 6HR PCP:  0.01;                

MILLVILLE      FAIR      42  30  62 NW14G21   29.61R                  
WRIGHTSTOWN    MOCLDY    40  33  75 W16G26    29.54R WCI  32          
MOUNT HOLLY    CLOUDY    42  32  67 W9G20     29.58R                  
TRENTON        LGT RAIN  39  35  86 W10       29.55R WCI  32          
6HR MIN TEMP:  38; 6HR MAX TEMP:  50; 6HR PCP:  0.03;                


$$
NJZ001>014-230100-
NORTHERN NEW JERSEY
  
CITY           SKY/WX    TMP DP  RH WIND       PRES   REMARKS
SUSSEX         FAIR      41  29  62 VRB5      29.47R                  
ANDOVER*         N/A     39  28  64 VRB7      29.50R WCI  34          
MORRISTOWN     PTCLDY    43  30  61 NW9G29    29.49R                  
NEWARK         FAIR      44  29  55 W20G28    29.48R                  
TETERBORO      FAIR      44  30  57 W14G26    29.46R                  
CALDWELL       FAIR      43  29  57 W14G22    29.48R                  
SOMERVILLE     CLOUDY    41  33  73 W9        29.51R                  
ALLAIRE*       CLOUDY    42  32  67 W22G37    29.52R                  
TOMS RIVER*    MOCLDY    42  35  76 W18G29    29.55R                  

$$
PAZ043-044-047-054-055-060>062-066>071-230100-
EASTERN PENNSYLVANIA
  
CITY           SKY/WX    TMP DP  RH WIND       PRES   REMARKS
PHILADELPHIA   MOCLDY    43  32  65 W12       29.60R                  
6HR MIN TEMP:  42; 6HR MAX TEMP:  52; 6HR PCP:  0.03;                

NORTH PHILA    MOCLDY    43  32  65 W15G25    29.59R                  
BLUE BELL*     CLOUDY    37  32  81 W7        29.60R WCI  32          
DOYLESTOWN     CLOUDY    39  32  76 W15G24    29.56R WCI  31          
QUAKERTOWN*    MOCLDY    37  34  87 W9G21     29.57R WCI  31          
PERKASIE*      LGT RAIN  37  36  93 W14G29    29.58R WCI  29          
POTTSTOWN      CLOUDY    39  33  79 W9G20     29.60R WCI  33          
LANCASTER      FAIR      41  29  62 W22G33    29.63R                  
COATESVILLE    MOCLDY    41  30  65 W23G31    29.61R                  
READING        MOCLDY    41  33  73 NW15      29.59R                  
6HR MIN TEMP:  39; 6HR MAX TEMP:  49; 6HR PCP:  0.07;                

ALLENTOWN      FAIR      41  30  65 W9G20     29.55R                  
6HR MIN TEMP:  40; 6HR MAX TEMP:  51; 6HR PCP: TRACE;                

MOUNT POCONO   LGT SNOW  31  30  96 W14G28    29.47R FOG     WCI  21  
6HR MIN TEMP:  31; 6HR MAX TEMP:  38; 6HR PCP:  0.03;                

HAZLETON       LGT SNOW  32  32 100 W13G23    29.57R WCI  22          
LEHIGHTON      MOCLDY    37  32  81 W6        29.58R WCI  33          
WILKES BARRE   LGT SNOW  35  31  85 NW17G29   29.55R FOG     WCI  25  

$$
DEZALL-MDZ008-012-015-019-020-230100-
DELAWARE AND EASTERN MARYLAND
  
CITY           SKY/WX    TMP DP  RH WIND       PRES   REMARKS
WILMINGTON     FAIR      42  29  59 W14       29.62R                  
6HR MIN TEMP:  41; 6HR MAX TEMP:  53; 6HR PCP: TRACE;                

GEORGETOWN     FAIR      46  35  65 W12G21    29.67R                  
6HR MIN TEMP:  46; 6HR MAX TEMP:  55; 6HR PCP: TRACE;                

EASTON         PTCLDY    45  30  57 W13G25    29.72R                  
ABERDEEN       PTCLDY    45  32  61 W14G25    29.64R                  
PATUXENT       FAIR      46  30  53 NW26G35   29.73                   
OCEAN CITY     MOCLDY    40  37  89 W14       29.68R WCI  32          
WALLOPS ISLAND MOCLDY    43  37  79 W12       29.71S                  
CAMBRIDGE      CLEAR     45  34  65 NW9G24    29.71R                  
SALISBURY      FAIR      42  38  85 W10       29.69R                  

$$
PAZ001-021-NYZ056-072-MDZ011-DCZ001-230100-
OTHER NEARBY LOCATIONS
  
CITY           SKY/WX    TMP DP  RH WIND       PRES   REMARKS
HARRISBURG     FAIR      41  27  57 NW23G35   29.66R                  
STATE COLLEGE  CLOUDY    34  23  64 NW13G28   29.71R WCI  25          
WILLIAMSPORT   CLOUDY    39  24  55 NW13G23   29.64R WCI  31          
BINGHAMTON     LGT SNOW  30  27  88 NW24G37   29.50R FOG     WCI  16  
NEW YORK CITY  FAIR      44  29  55 W9G20     29.48R                  
BALTIMORE      FAIR      43  28  55 NW21G33   29.70R                  
WASHINGTON DC  FAIR      45  28  51 W13G29    29.75R                  

$$